Temperature
19 17 17 18 18 20 20 20 20 20 20 20 19 18 18 18 18 18 18 18 18 18 19 18 18 18 19 18 18 18 18 17 17 17 17 17 17 17 16 16 16 16 16 15
18 18 19 19 19 20 20 20 19 20 20 20 19 18 18 18 18 18 18 17 18 18 18 18 18 18 18 18 18 18 17 17 17 17 17 17 16 16 16 16 16 15 15 15
18 19 20 20 20 20 20 19 20 20 20 20 19 19 19 18 18 18 18 18 18 18 18 18 18 18 18 18 18 18 17 17 17 17 16 16 16 16 16 16 15 15 15 15
19 19 20 20 20 20 20 20 20 20 19 18 19 18 18 18 18 17 17 17 18 18 18 18 18 18 18 18 17 17 17 17 17 16 16 16 16 16 16 16 15 15 15 15
19 20 21 21 21 21 20 21 20 20 19 18 18 18 18 18 18 17 17 17 17 18 18 18 18 18 18 17 17 17 17 17 17 16 16 16 16 15 15 15 15 15 15 14
20 20 21 21 22 21 21 20 18 17 17 18 18 18 18 17 18 18 17 17 17 17 18 18 18 18 17 17 17 17 17 16 16 16 16 16 15 15 15 15 15 14 14 14
20 20 21 21 21 21 20 18 18 18 17 17 18 18 17 18 18 18 17 17 17 17 17 18 17 17 17 17 17 17 16 16 16 16 16 15 15 15 15 15 14 14 14 14
19 19 21 21 21 20 19 19 18 18 18 17 18 17 18 18 18 18 18 18 17 17 17 17 17 17 17 17 16 16 16 16 16 16 15 15 15 15 14 14 14 14 14 14
18 19 20 21 21 20 19 18 18 17 17 17 17 17 17 18 17 17 17 17 17 17 17 17 17 17 17 17 16 16 16 16 15 15 15 15 15 14 14 14 14 14 13 13
18 18 20 21 21 20 19 17 16 16 17 18 18 18 17 18 17 17 16 16 17 17 17 17 17 17 16 16 16 16 15 15 15 15 14 14 14 14 14 14 14 13 13 13
18 18 19 20 20 19 18 18 16 15 16 17 17 17 18 17 17 16 16 17 17 17 17 17 17 16 16 16 15 15 15 15 15 14 14 14 14 14 14 14 13 13 13 13
16 16 17 19 20 20 19 18 16 17 17 15 16 17 17 16 16 16 16 17 17 17 17 17 16 16 15 15 15 15 15 14 14 14 14 14 14 14 13 13 13 13 13 13
16 16 17 18 19 19 19 17 16 15 15 15 16 17 17 16 16 16 16 17 16 16 16 16 16 15 15 15 15 14 14 14 14 13 13 13 13 13 13 13 13 13 12 12
16 15 16 18 18 18 18 18 17 16 15 15 16 17 17 16 15 15 16 16 16 16 16 15 15 15 15 15 14 14 14 13 13 13 13 13 13 13 13 13 12 12 12 12
15 15 16 17 18 18 18 18 17 17 16 17 17 17 17 15 15 15 15 15 15 15 15 15 15 15 14 14 14 14 13 13 13 13 13 13 13 13 12 12 12 12 12 12
13 15 16 17 18 18 18 18 17 17 17 17 17 16 15 15 15 14 14 14 14 14 14 14 15 15 15 14 14 14 13 13 13 13 13 13 12 12 12 12 12 12 12 12
12 14 15 15 17 18 17 17 17 17 17 17 17 16 15 14 14 14 14 14 14 14 14 14 15 15 15 15 14 14 13 13 13 13 12 12 12 12 12 12 12 12 12 12
12 13 13 14 16 17 17 17 17 17 16 16 15 15 15 14 14 15 15 14 14 15 15 15 15 15 15 14 14 14 13 13 13 12 12 12 12 12 12 12 12 11 11 11
12 13 13 13 15 16 17 17 16 16 16 15 15 14 14 14 14 14 15 15 15 15 15 15 15 15 15 14 14 13 13 13 13 12 12 12 12 12 12 11 11 11 11 11
12 12 12 13 15 15 16 16 16 16 15 14 14 13 13 14 13 13 14 15 15 15 15 15 15 15 14 14 14 13 13 13 12 12 12 12 12 12 12 11 11 11 11 11
12 12 12 13 14 14 15 15 16 16 15 14 14 13 13 13 14 14 14 14 15 15 15 15 15 14 14 14 13 13 13 13 12 12 12 12 12 12 11 11 11 11 11 11
12 12 12 12 13 14 14 14 14 14 14 14 14 14 13 14 14 14 14 14 14 14 14 14 14 14 14 13 13 13 13 12 12 12 12 12 12 12 11 11 11 11 11 11
11 11 11 11 12 13 13 13 14 14 14 14 14 14 14 13 13 14 14 14 14 14 14 14 14 14 13 13 13 13 12 12 12 12 12 11 11 11 11 11 11 11 11 11
11 10 10 11 11 12 13 13 14 14 14 14 14 14 14 13 13 14 14 14 13 13 14 14 14 14 13 13 13 13 12 12 12 12 11 11 11 11 11 11 11 11 11 11
10 10 10 11 11 12 13 13 14 14 14 14 14 13 13 13 13 13 14 14 13 13 13 13 13 13 13 13 12 12 12 12 12 11 11 11 11 11 11 11 11 11 11 11
9 10 10 11 11 11 11 13 13 13 13 13 13 13 13 13 13 13 13 13 13 13 13 13 13 13 12 12 12 12 12 11 11 11 11 11 11 10 10 10 10 10 10 11
Wind_Speed
3 4 6 9 9 6 4 3 3 5 3 2 3 3 3 1 2 3 2 2 3 3 1 3 4 4 4 3 3 3 4 3 4 3 3 2 1 1 0 0 1 2 2 3
3 5 9 6 6 5 4 2 3 4 1 3 2 2 2 2 4 5 4 4 3 2 3 3 3 3 4 4 3 3 3 4 4 3 2 2 2 1 0 0 1 1 1 2
7 6 5 6 5 5 5 5 5 4 2 2 2 3 3 2 2 2 3 3 4 5 5 4 4 3 3 3 3 4 3 3 3 3 3 3 3 2 1 1 0 1 1 1
6 6 5 5 6 7 6 7 7 4 1 2 2 2 5 3 2 3 3 3 4 4 4 4 4 3 4 3 3 3 4 3 3 4 4 4 3 1 2 1 1 1 0 1
6 4 5 7 8 9 7 3 4 3 3 0 1 2 6 2 4 6 5 5 4 4 4 5 4 4 3 3 3 3 3 3 3 3 4 4 2 1 0 0 0 1 1 1
6 4 5 6 4 6 5 5 5 5 4 1 3 3 5 5 7 5 5 5 5 4 4 4 3 3 2 3 3 3 3 2 2 2 3 3 3 3 2 1 1 1 1 1
4 4 4 3 2 2 6 6 3 3 2 5 2 3 7 6 6 6 7 7 6 6 6 5 5 4 3 3 3 3 3 2 2 2 2 3 4 4 3 3 2 1 1 1
2 6 4 4 6 7 6 9 8 5 5 4 1 5 6 4 3 3 5 5 6 6 6 6 6 5 4 4 3 3 3 2 2 2 1 2 2 2 2 2 1 2 2 2
5 6 4 3 3 9 7 5 6 6 2 1 4 5 6 1 1 3 4 5 6 6 6 6 6 5 5 4 4 3 3 2 2 1 1 1 1 2 1 1 1 1 1 1
6 4 5 2 3 2 6 8 6 6 5 3 4 4 5 5 5 4 5 5 5 5 5 5 5 5 4 4 3 3 3 2 2 2 1 1 1 1 1 1 0 1 1 1
4 4 4 1 3 5 4 4 5 4 4 5 4 6 5 8 8 7 7 6 7 7 7 6 5 5 4 4 4 3 3 2 2 2 2 1 1 0 1 1 1 1 1 1
3 4 3 6 4 3 5 7 7 6 5 4 4 6 4 6 6 7 6 6 6 6 6 5 6 6 5 4 4 3 3 2 2 2 2 1 1 1 1 1 1 1 1 1
2 4 1 4 3 1 2 2 4 5 5 5 5 6 2 2 3 4 6 6 6 7 6 5 5 5 5 4 4 3 3 2 2 2 2 2 2 2 1 1 1 1 1 0
3 3 5 7 6 3 2 1 4 6 4 5 7 6 3 2 3 3 4 6 7 7 7 6 5 5 4 4 3 3 2 2 2 2 2 2 1 1 1 1 1 1 0 0
3 2 3 4 4 2 3 3 4 5 6 7 7 6 6 5 5 4 5 6 6 6 6 7 6 5 4 4 3 3 2 2 2 2 2 1 0 1 1 1 1 1 1 0
2 2 1 1 1 1 2 3 4 4 3 4 3 4 3 2 4 4 6 8 8 7 7 6 6 5 5 5 4 3 2 2 2 2 1 0 1 1 1 1 1 1 1 1
0 2 2 2 3 1 3 5 5 4 3 5 6 5 3 3 5 6 7 8 9 8 7 7 7 6 6 5 5 5 3 2 2 2 1 1 1 1 1 1 2 1 1 2
4 3 3 2 1 4 5 2 2 4 1 2 2 2 4 5 4 3 5 7 7 8 8 8 6 6 5 4 4 4 3 3 2 2 1 1 1 1 1 2 2 1 1 1
5 5 3 3 2 4 4 2 1 3 1 1 3 2 3 5 4 1 2 5 6 6 6 6 6 6 5 5 5 5 4 3 2 2 1 1 1 1 1 1 1 1 1 1
3 4 4 3 3 5 4 5 2 3 1 1 2 4 4 5 3 3 2 2 2 2 3 5 5 5 6 5 6 6 4 3 2 2 2 1 1 1 1 1 0 1 0 0
2 2 2 3 3 4 4 5 2 3 4 2 2 4 5 4 4 3 3 3 3 2 3 5 6 6 5 5 6 6 4 3 3 2 2 1 1 2 1 1 0 0 1 1
2 2 3 3 3 4 5 2 2 4 2 1 1 2 3 3 3 4 5 4 4 3 3 5 6 4 4 6 7 5 4 3 2 2 2 1 1 1 0 1 0 0 1 1
1 3 3 4 4 3 1 1 3 1 1 1 1 2 4 5 3 4 4 3 3 4 5 5 6 5 4 4 6 6 4 3 3 2 1 1 1 0 0 1 1 0 0 0
2 1 1 1 3 3 4 3 2 1 1 1 2 3 4 4 4 4 4 3 3 3 4 4 6 6 4 3 4 4 3 4 3 3 1 0 0 0 1 0 0 1 1 1
3 1 0 2 3 4 5 4 3 3 1 2 3 2 4 5 4 4 4 4 4 3 3 4 5 5 5 3 3 2 3 4 3 2 1 1 0 0 1 1 1 1 2 3
2 2 1 3 3 2 5 5 3 1 0 2 3 2 2 3 4 4 4 4 4 4 4 4 4 4 4 3 3 2 4 5 5 3 2 1 0 0 0 1 2 3 2 3
Wind_Direction
131 112 204 210 198 194 182 192 243 261 236 176 200 225 259 189 164 176 171 165 162 186 164 117 128 127 120 115 129 139 134 132 129 128 136 139 150 159 123 187 160 154 163 169
75 236 226 195 189 188 199 222 258 289 266 161 172 240 250 191 193 193 187 190 183 151 107 115 120 130 138 138 138 138 146 148 156 155 148 140 133 138 176 341 69 153 176 184
193 231 188 171 188 195 221 204 211 218 353 60 107 312 261 238 202 192 186 179 172 169 166 157 143 144 142 149 157 164 159 151 151 142 115 97 76 57 50 28 11 276 202 185
225 239 191 190 205 182 237 215 191 189 147 267 143 259 271 225 228 216 208 184 185 171 162 162 158 157 156 161 143 142 145 142 141 140 144 146 149 174 225 222 238 308 269 214
235 207 185 208 214 183 211 174 159 161 154 337 333 184 275 226 232 227 215 202 185 169 166 174 179 176 153 132 132 136 134 133 138 140 152 153 158 178 205 27 23 332 322 289
239 231 202 211 205 175 153 87 63 56 81 253 237 184 265 227 220 213 204 202 188 175 169 167 156 130 115 114 115 123 128 118 125 138 154 164 168 161 163 214 242 303 307 305
293 275 237 177 118 112 125 113 49 360 5 250 234 197 246 239 217 204 202 202 191 173 165 159 149 148 144 133 127 122 121 105 107 134 164 180 183 179 193 210 212 244 279 279
225 278 241 190 179 180 175 150 162 193 214 260 252 228 252 245 215 189 185 180 170 169 173 174 172 168 163 151 137 130 128 120 113 123 136 157 166 168 186 199 196 223 250 262
191 254 279 225 180 146 147 172 161 137 147 221 263 275 299 249 170 161 167 166 178 182 181 178 169 164 163 156 150 150 141 119 109 112 109 99 145 153 173 196 194 240 271 274
167 238 283 260 95 71 145 145 110 130 159 225 262 255 238 223 218 197 182 184 192 179 173 163 155 154 151 147 137 125 123 122 110 107 112 109 156 168 161 137 187 273 289 285
149 182 294 18 180 186 119 119 118 128 160 168 226 261 229 209 201 195 197 190 184 179 175 164 151 141 130 119 117 116 114 101 98 109 99 72 34 88 122 156 226 250 264 239
163 141 242 252 248 185 165 164 150 161 206 182 186 260 280 205 193 182 190 183 173 168 159 148 142 134 128 128 125 123 125 123 118 105 93 76 47 53 109 224 259 256 251 252
136 126 110 330 345 50 122 148 150 135 133 164 182 256 330 129 171 187 182 171 159 151 140 134 135 137 140 143 143 142 140 133 101 89 88 68 45 31 5 307 308 301 278 304
121 129 172 202 220 199 197 191 154 137 164 202 216 229 268 211 196 205 182 163 155 152 147 146 148 151 154 154 147 145 138 129 116 105 103 88 50 343 328 335 343 337 331 309
97 167 210 225 235 191 206 205 180 180 188 195 225 215 234 217 198 187 165 148 144 148 152 156 158 159 154 146 142 141 146 140 127 124 130 140 322 16 19 1 351 356 354 272
56 163 196 264 245 215 239 231 195 210 193 197 202 248 256 177 133 145 156 156 160 166 166 160 156 160 163 164 161 154 159 161 143 145 153 124 42 33 22 3 6 18 19 27
48 131 135 231 280 17 269 239 204 193 188 174 203 226 166 139 157 176 172 169 173 170 162 164 170 172 180 183 171 170 174 171 158 156 143 108 78 36 3 15 25 15 33 70
167 137 143 167 94 226 243 279 164 152 145 160 171 168 163 166 162 162 159 161 169 170 170 173 172 170 174 174 164 157 155 158 154 154 145 126 94 52 30 36 20 358 42 73
171 147 128 135 184 262 288 319 162 161 242 105 155 143 113 117 88 78 168 170 179 182 180 176 171 165 164 168 158 146 151 150 148 165 170 171 159 132 71 47 4 351 35 46
95 111 125 134 171 225 262 313 309 123 244 324 142 149 139 122 136 230 209 174 170 161 157 152 144 139 154 161 149 145 153 154 175 195 199 195 181 162 169 200 294 325 58 54
73 79 140 168 206 259 293 315 44 145 239 261 183 163 160 178 192 191 156 143 143 150 155 145 139 145 159 155 147 148 155 185 207 197 185 189 198 189 184 178 162 2 51 46
152 143 176 161 185 253 331 30 139 231 253 183 183 168 157 149 122 119 129 135 139 143 143 142 143 145 144 149 148 151 175 199 175 155 165 182 195 199 148 117 61 22 66 41
167 191 194 195 211 256 317 294 302 246 173 218 174 172 142 127 128 127 132 139 149 149 150 150 146 142 140 152 153 164 187 159 139 132 146 168 173 174 122 157 185 316 326 349
307 18 128 287 294 318 324 330 339 352 260 217 161 157 145 136 140 140 137 139 150 148 148 146 143 146 154 164 168 176 164 146 142 145 148 106 72 26 32 44 195 223 242 251
271 308 297 277 296 339 340 329 330 354 35 91 98 127 150 143 146 151 150 153 158 147 140 144 154 161 167 164 155 156 151 144 144 149 147 110 76 79 25 360 285 244 239 226
251 205 200 243 252 244 278 298 309 349 102 138 128 107 118 148 158 148 147 155 152 145 135 137 144 151 158 158 154 157 161 156 153 156 158 153 140 46 46 24 5 2 336 311
Height
1474 1480 1484 1481 1480 1481 1483 1487 1490 1485 1480 1483 1486 1486 1484 1482 1482 1483 1484 1484 1485 1486 1488 1489 1491 1493 1494 1495 1496 1497 1499 1501 1502 1503 1505 1506 1507 1508 1508 1509 1509 1509 1510 1510
1478 1480 1473 1474 1476 1479 1482 1487 1488 1483 1478 1482 1486 1486 1482 1481 1481 1481 1482 1483 1484 1485 1487 1489 1490 1492 1493 1494 1495 1497 1498 1500 1501 1503 1504 1505 1506 1507 1507 1508 1508 1508 1508 1509
1476 1472 1468 1472 1476 1480 1481 1485 1485 1485 1481 1482 1486 1488 1484 1481 1481 1481 1482 1482 1483 1484 1485 1488 1489 1491 1492 1493 1494 1496 1498 1499 1500 1502 1503 1504 1505 1505 1506 1506 1506 1507 1507 1507
1471 1466 1467 1470 1473 1475 1482 1474 1477 1480 1487 1493 1489 1501 1487 1481 1481 1480 1481 1481 1482 1484 1485 1486 1488 1489 1491 1492 1494 1496 1497 1498 1500 1501 1502 1502 1503 1504 1504 1505 1505 1505 1505 1505
1468 1463 1464 1468 1466 1468 1472 1469 1474 1478 1486 1493 1491 1499 1492 1482 1481 1479 1479 1480 1481 1482 1484 1485 1487 1489 1490 1492 1494 1495 1497 1498 1499 1500 1501 1502 1502 1503 1503 1503 1503 1503 1504 1504
1461 1458 1459 1460 1459 1461 1465 1472 1479 1486 1493 1502 1493 1497 1494 1484 1477 1475 1476 1477 1479 1481 1483 1485 1487 1489 1490 1491 1493 1494 1496 1497 1498 1499 1500 1500 1501 1501 1501 1501 1502 1502 1502 1502
1464 1459 1455 1455 1461 1463 1467 1482 1500 1503 1509 1504 1490 1493 1490 1474 1471 1471 1473 1475 1477 1479 1481 1483 1485 1487 1489 1490 1492 1493 1495 1495 1496 1497 1498 1499 1499 1499 1500 1500 1500 1500 1500 1500
1473 1471 1456 1453 1457 1464 1468 1476 1496 1506 1509 1502 1492 1493 1480 1468 1468 1468 1470 1472 1475 1477 1480 1481 1484 1485 1487 1489 1491 1492 1493 1494 1495 1496 1496 1497 1497 1497 1498 1498 1498 1499 1498 1498
1472 1469 1453 1450 1450 1456 1468 1474 1475 1491 1496 1502 1496 1486 1475 1467 1467 1468 1469 1471 1473 1475 1478 1480 1482 1484 1486 1488 1490 1492 1493 1494 1494 1495 1495 1496 1496 1496 1496 1496 1497 1497 1497 1497
1461 1468 1455 1450 1451 1454 1459 1467 1481 1491 1502 1504 1494 1488 1482 1471 1468 1468 1468 1469 1471 1473 1476 1478 1481 1483 1485 1487 1489 1491 1493 1493 1494 1494 1495 1495 1495 1495 1495 1495 1495 1495 1495 1495
1457 1466 1461 1455 1457 1460 1463 1469 1476 1486 1489 1498 1501 1490 1466 1464 1463 1465 1465 1467 1469 1472 1474 1477 1479 1481 1484 1486 1488 1489 1492 1493 1493 1493 1494 1494 1494 1494 1493 1494 1494 1494 1494 1494
1456 1465 1469 1460 1451 1449 1454 1461 1471 1482 1486 1489 1492 1486 1459 1459 1459 1461 1463 1465 1468 1470 1473 1476 1478 1481 1483 1485 1487 1489 1490 1491 1492 1492 1493 1493 1493 1493 1492 1492 1492 1492 1492 1492
1456 1465 1473 1468 1463 1456 1457 1460 1464 1471 1480 1488 1490 1480 1459 1459 1460 1460 1462 1464 1467 1470 1473 1476 1478 1480 1482 1485 1487 1488 1490 1490 1491 1492 1492 1492 1492 1492 1492 1491 1491 1491 1491 1491
1451 1463 1469 1471 1466 1459 1459 1459 1461 1468 1479 1481 1477 1470 1462 1461 1461 1461 1461 1463 1466 1469 1472 1474 1477 1479 1482 1484 1487 1488 1489 1490 1490 1491 1491 1491 1491 1491 1491 1490 1490 1490 1490 1490
1452 1461 1459 1457 1454 1454 1455 1456 1458 1461 1464 1470 1466 1465 1460 1458 1459 1459 1461 1463 1466 1469 1471 1473 1476 1479 1481 1484 1486 1487 1489 1490 1490 1490 1491 1491 1491 1491 1490 1490 1490 1490 1490 1489
1455 1460 1459 1458 1453 1453 1455 1453 1454 1456 1457 1460 1460 1461 1456 1456 1457 1459 1460 1462 1465 1467 1469 1472 1475 1478 1480 1482 1484 1486 1488 1489 1490 1490 1491 1491 1491 1490 1490 1489 1489 1489 1489 1489
1459 1461 1464 1465 1456 1454 1462 1454 1452 1452 1452 1454 1458 1456 1454 1456 1457 1457 1458 1460 1462 1465 1468 1471 1473 1476 1479 1482 1484 1485 1487 1489 1490 1490 1490 1490 1490 1490 1490 1489 1489 1488 1488 1487
1459 1461 1466 1466 1463 1469 1458 1446 1445 1448 1450 1450 1451 1451 1452 1453 1455 1457 1458 1459 1462 1464 1466 1469 1472 1475 1479 1481 1483 1485 1487 1488 1489 1489 1490 1490 1490 1490 1489 1489 1488 1488 1487 1486
1453 1459 1466 1469 1469 1464 1453 1447 1447 1450 1452 1450 1451 1451 1453 1453 1455 1457 1458 1459 1461 1463 1465 1468 1471 1474 1477 1480 1482 1484 1485 1487 1488 1488 1489 1489 1489 1489 1489 1488 1488 1487 1487 1486
1454 1456 1464 1468 1468 1468 1455 1446 1444 1448 1455 1450 1449 1450 1452 1453 1458 1458 1457 1458 1460 1463 1465 1467 1470 1473 1476 1478 1480 1482 1484 1485 1486 1487 1488 1488 1488 1488 1488 1488 1488 1487 1486 1485
1459 1462 1465 1468 1468 1461 1451 1446 1444 1456 1456 1449 1448 1449 1450 1452 1453 1454 1455 1457 1459 1462 1464 1466 1469 1471 1474 1476 1479 1480 1482 1483 1485 1486 1487 1487 1487 1487 1487 1487 1487 1487 1486 1485
1461 1464 1465 1467 1468 1465 1450 1448 1451 1451 1447 1447 1447 1448 1449 1450 1451 1453 1455 1457 1459 1461 1463 1465 1468 1470 1473 1475 1477 1479 1480 1482 1484 1485 1486 1486 1486 1486 1486 1486 1486 1486 1486 1485
1460 1461 1461 1461 1461 1453 1450 1449 1448 1447 1447 1447 1448 1449 1449 1450 1451 1453 1454 1457 1459 1460 1462 1465 1467 1470 1472 1474 1476 1477 1480 1481 1483 1484 1485 1485 1486 1486 1486 1485 1485 1485 1485 1484
1458 1457 1458 1458 1454 1451 1449 1448 1447 1447 1447 1447 1448 1448 1449 1450 1451 1452 1454 1456 1458 1460 1462 1464 1466 1468 1471 1473 1475 1477 1479 1480 1481 1482 1483 1484 1484 1485 1485 1485 1485 1484 1484 1483
1459 1457 1457 1457 1453 1450 1449 1449 1447 1446 1446 1447 1448 1448 1449 1450 1451 1452 1453 1456 1458 1459 1461 1463 1465 1467 1470 1472 1475 1477 1478 1479 1480 1481 1482 1483 1483 1483 1484 1484 1484 1483 1483 1482
1458 1458 1458 1456 1453 1453 1451 1449 1448 1446 1446 1447 1448 1448 1450 1451 1451 1452 1454 1455 1457 1459 1461 1463 1465 1467 1469 1472 1474 1476 1477 1478 1479 1480 1481 1482 1482 1482 1483 1482 1482 1482 1482 1482